Weather observations for the past three days for
Jesup-Wayne County Airport
Imperial (Metric)
Date Time (edt) Wind (mph) Vis. (mi.) Weather Sky Cond. Temperature (ºF) Relative Humidity Wind Chill (°F) Heat Index (°F) Pressure Precipitation (in)
Air Dwpt 6 hour altimeter (in) sea level (mb) 1 hr 3 hr 6 hr
Max. Min.
09 07:30 Calm 0.25 Fog OVC002 59 59 100% 29.95 0.0
09 07:10 Calm 0.25 Fog OVC002 59 59 100% 29.95 0.0
09 06:50 Calm 0.75 Fog/Mist BKN004 59 59 100% 29.94 0.0
09 06:30 Calm 5.00 Fog/Mist CLR 59 59 100% 29.94 0.0
09 06:10 Calm 4.00 Fog/Mist CLR 59 59 100% 29.93 0.0
09 05:50 Calm 4.00 Fog/Mist CLR 60.8 60.8 100% 29.92 0.0
09 05:30 Calm 4.00 Fog/Mist SCT001 SCT005 60.8 60.8 100% 29.92 0.0
09 05:10 Calm 3.00 Fog/Mist SCT001 SCT005 60.8 60.8 100% 29.92 0.0
09 04:50 Calm 7.00 Partly Cloudy SCT013 60.8 60.8 100% 29.94 0.0
09 04:30 Calm 7.00 Mostly Cloudy BKN013 60.8 60.8 100% 29.94 0.0
09 04:10 Calm 10.00 Overcast OVC011 62.6 60.8 94% 29.95 0.0
09 03:50 Calm 10.00 Overcast OVC007 62.6 60.8 94% 29.95 0.0
09 03:30 Calm 10.00 Overcast OVC005 62.6 60.8 94% 29.93 0.0
09 03:10 Calm 10.00 Mostly Cloudy BKN003 BKN070 BKN100 62.6 60.8 94% 29.94 0.0
09 02:50 Calm 7.00 Light Drizzle SCT070 BKN110 60.8 60.8 100% 29.92 0.0
09 02:30 Calm 10.00 Partly Cloudy SCT120 62.6 62.6 100% 29.95 0.0
09 02:10 Calm 10.00 Fair CLR 62.6 60.8 94% 29.94 0.0
09 01:50 Calm 10.00 Partly Cloudy SCT110 62.6 62.6 100% 29.95 0.0
09 01:30 Calm 7.00 Fair CLR 62.6 60.8 94% 29.95 0.0
09 01:10 Calm 7.00 Fair CLR 62.6 62.6 100% 29.97 0.0
09 00:50 Calm 10.00 Partly Cloudy SCT110 62.6 62.6 100% 29.99 0.0
09 00:30 Calm 10.00 Overcast OVC110 62.6 62.6 100% 29.99 0.0
09 00:10 Calm 10.00 Overcast OVC110 62.6 62.6 100% 29.97 0.0
08 23:50 Calm 10.00 Light Drizzle OVC110 62.6 62.6 100% 29.99 0.0
08 23:30 Calm 10.00 Overcast OVC100 62.6 62.6 100% 30.01 0.0
08 23:10 Calm 10.00 Overcast OVC100 62.6 62.6 100% 30.01 0.0
08 22:50 Calm 10.00 Light Rain OVC100 64.4 62.6 94% 30.04 0.0
08 22:30 Calm 10.00 Light Rain BKN110 64.4 62.6 94% 30.05 0.0
08 22:10 Calm 10.00 Light Rain SCT030 SCT040 OVC120 64.4 62.6 94% 30.05 0.0
08 21:50 Calm 10.00 Light Rain SCT030 BKN043 OVC120 64.4 62.6 94% 30.05 0.0
08 21:30 Calm 7.00 Rain SCT030 BKN042 OVC080 66.2 64.4 94% 30.04 0.0
08 21:10 Calm 7.00 Rain OVC032 68 64.4 88% 30.03 0.0
08 20:50 Calm 10.00 Light Rain BKN034 OVC085 68 62.6 83% 30.02 0.0
08 20:30 Calm 10.00 Partly Cloudy SCT034 SCT041 68 62.6 83% 30.01 0.0
08 20:10 Calm 10.00 Partly Cloudy SCT038 SCT055 SCT080 68 62.6 83% 30 0.0
08 19:50 Calm 10.00 Light Rain SCT080 SCT100 SCT120 69.8 62.6 78% 29.99 0.0
08 19:30 Calm 10.00 Partly Cloudy SCT110 69.8 62.6 78% 29.99 0.0
08 19:10 Calm 10.00 Fair CLR 69.8 62.6 78% 29.98 0.0
08 18:50 Calm 10.00 Fair CLR 71.6 62.6 73% 29.98 0.0
08 18:30 E 3 10.00 Fair CLR 71.6 62.6 73% 29.97 0.0
08 18:10 SE 7 10.00 Fair CLR 73.4 62.6 69% 29.95 0.0
08 17:50 Calm 10.00 Fair CLR 73.4 62.6 69% 29.95 0.0
08 17:30 Calm 10.00 Fair CLR 75.2 62.6 65% 77 29.95 0.0
08 17:10 Calm 10.00 Partly Cloudy SCT039 SCT110 75.2 62.6 65% 77 29.97 0.0
08 16:50 E 5 10.00 Mostly Cloudy SCT035 BKN041 BKN110 75.2 62.6 65% 77 29.97 0.0
08 16:30 Calm 10.00 Mostly Cloudy BKN035 BKN041 77 62.6 61% 79 29.98 0.0
08 16:10 Calm 10.00 Partly Cloudy SCT035 SCT043 78.8 62.6 58% 80 29.98 0.0
08 15:50 Calm 10.00 Mostly Cloudy BKN035 BKN043 78.8 62.6 58% 80 29.99 0.0
08 15:30 Calm 10.00 Mostly Cloudy BKN035 BKN041 78.8 62.6 58% 80 30 0.0
08 15:10 Calm 10.00 Partly Cloudy SCT035 78.8 62.6 58% 80 29.99 0.0
08 14:30 Calm 10.00 Mostly Cloudy BKN033 BKN041 78.8 62.6 58% 80 30.01 0.0
08 14:10 Calm 10.00 Overcast SCT033 OVC041 78.8 62.6 58% 80 30.01 0.0
08 13:50 Calm 10.00 Partly Cloudy SCT029 SCT043 77 62.6 61% 79 30.02 0.0
08 13:10 Calm 10.00 Fair CLR 77 62.6 61% 79 30.03 0.0
08 12:50 Calm 10.00 Fair CLR 75.2 62.6 65% 77 30.04 0.0
08 12:30 E 5 10.00 Partly Cloudy SCT025 73.4 62.6 69% 30.05 0.0
08 12:10 E 5 10.00 Fair CLR 73.4 60.8 65% 30.05 0.0
08 11:50 Calm 10.00 Fair CLR 71.6 60.8 69% 30.05 0.0
08 11:40 Calm 10.00 Fair CLR 71.6 60.8 69% 30.06 0.0
08 11:10 Calm 10.00 Fair CLR 71.6 60.8 69% 30.05 0.0
08 10:50 Calm 10.00 Fair CLR 71.6 59 65% 30.06 0.0
08 10:30 Calm 10.00 Partly Cloudy SCT110 69.8 59 69% 30.07 0.0
08 10:10 Calm 10.00 Fair CLR 69.8 59 69% 30.05 0.0
08 09:50 Calm 10.00 Fair CLR 69.8 59 69% 30.05 0.0
08 09:30 Calm 10.00 Fair CLR 69.8 59 69% 30.05 0.0
08 09:10 Calm 10.00 Fair CLR 68 59 73% 30.04 0.0
08 08:50 Calm 10.00 Fair CLR 68 59 73% 30.04 0.0
08 08:30 Calm 10.00 Fair CLR 68 59 73% 30.03 0.0
08 08:10 Calm 10.00 Fair CLR 68 59 73% 30.03 0.0
08 07:50 Calm 10.00 Fair CLR 68 59 73% 30.02 0.0
08 07:30 Calm 10.00 Partly Cloudy SCT038 68 59 73% 30 0.0
08 07:10 Calm 10.00 Partly Cloudy SCT038 SCT047 68 59 73% 30 0.0
08 06:50 Calm 10.00 Mostly Cloudy BKN040 BKN047 68 59 73% 29.99 0.0
08 06:30 Calm 10.00 Mostly Cloudy BKN042 68 59 73% 29.98 0.0
08 06:10 Calm 10.00 Partly Cloudy SCT038 68 59 73% 29.98 0.0
08 05:50 Calm 10.00 Partly Cloudy SCT036 68 59 73% 29.97 0.0
08 05:30 Calm 10.00 Partly Cloudy SCT038 68 57.2 69% 29.96 0.0
08 05:10 Calm 10.00 Mostly Cloudy BKN038 69.8 59 69% 29.96 0.0
08 04:50 Calm 10.00 Partly Cloudy SCT025 69.8 59 69% 29.95 0.0
08 04:30 Calm 10.00 Partly Cloudy SCT025 69.8 59 69% 29.96 0.0
08 04:10 Calm 10.00 Partly Cloudy SCT025 SCT030 SCT100 69.8 59 69% 29.95 0.0
08 03:50 Calm 10.00 Overcast BKN023 OVC030 71.6 59 65% 29.96 0.0
08 03:30 NE 5 10.00 Overcast SCT014 OVC021 71.6 64.4 78% 29.95 0.0
08 03:10 N 6 10.00 Overcast BKN012 OVC017 71.6 68 88% 29.95 0.0
08 02:50 Calm 10.00 Overcast BKN014 OVC018 71.6 69.8 94% 29.95 0.0
08 02:30 NW 5 10.00 Partly Cloudy SCT016 71.6 69.8 94% 29.95 0.0
08 02:10 Calm 10.00 Fair CLR 71.6 69.8 94% 29.95 0.0
08 01:50 Calm 10.00 Fair CLR 71.6 69.8 94% 29.96 0.0
08 01:30 Calm 10.00 Fair CLR 71.6 69.8 94% 29.95 0.0
08 01:10 Calm 10.00 Fair CLR 73.4 69.8 89% 29.95 0.0
08 00:50 Calm 10.00 Fair CLR 73.4 69.8 89% 29.95 0.0
08 00:30 Calm 10.00 Fair CLR 73.4 69.8 89% 29.95 0.0
08 00:15 Calm 10.00 Fair CLR 73.4 69.8 89% 29.94 0.0
07 23:30 Calm 10.00 Partly Cloudy SCT023 73.4 69.8 89% 29.95 0.0
07 23:15 Calm 10.00 Fair CLR 73.4 69.8 89% 29.95 0.0
07 22:50 Calm 10.00 Fair CLR 75.2 69.8 83% 75 29.95 0.0
07 22:34 Calm 10.00 Fair CLR 75.2 71.6 89% 75 29.94 0.0
07 21:54 Calm 10.00 Fair CLR 77 69.8 79% 79 29.93 0.0
07 21:30 Calm 10.00 Fair CLR 77 69.8 79% 79 29.92 0.0
07 21:15 Calm 10.00 Fair CLR 77 69.8 79% 79 29.91 0.0
07 20:50 Calm 10.00 Fair CLR 78.8 69.8 74% 81 29.91 0.0
07 20:10 W 7 10.00 Partly Cloudy SCT033 78.8 69.8 74% 81 29.9 0.0
07 19:50 Calm 10.00 Partly Cloudy SCT029 80.6 69.8 70% 84 29.91 0.0
07 19:10 W 9 G 17 10.00 Overcast OVC029 80.6 69.8 70% 84 29.91 0.0
07 18:50 W 10 G 17 10.00 Overcast OVC031 80.6 69.8 70% 84 29.9 0.0
07 18:30 W 7 G 16 10.00 Overcast OVC033 80.6 68 66% 83 29.9 0.0
07 17:50 W 12 G 20 10.00 Fair CLR 82.4 68 62% 85 29.89 0.0
07 17:30 W 8 G 22 10.00 Fair CLR 82.4 68 62% 85 29.88 0.0
07 17:15 W 12 G 18 10.00 Fair CLR 82.4 68 62% 85 29.88 0.0
07 16:50 W 10 G 16 10.00 Fair CLR 80.6 68 66% 83 29.88 0.0
07 16:30 W 10 G 18 10.00 Fair CLR 80.6 68 66% 83 29.89 0.0
07 16:10 W 13 G 20 10.00 Fair CLR 80.6 68 66% 83 29.9 0.0
07 15:50 W 10 G 20 10.00 Fair CLR 80.6 69.8 70% 84 29.9 0.0
07 15:30 W 9 G 16 10.00 Fair CLR 78.8 69.8 74% 81 29.9 0.0
07 15:10 W 7 10.00 Fair CLR 78.8 69.8 74% 81 29.9 0.0
07 14:50 W 8 10.00 Fair CLR 78.8 69.8 74% 81 29.9 0.0
07 14:30 W 8 10.00 Fair CLR 78.8 69.8 74% 81 29.91 0.0
07 14:10 W 8 10.00 Fair CLR 78.8 69.8 74% 81 29.9 0.0
07 13:50 SW 9 G 16 10.00 Fair CLR 78.8 69.8 74% 81 29.91 0.0
07 13:30 SW 10 G 17 10.00 Fair CLR 78.8 69.8 74% 81 29.93 0.0
07 13:10 SW 12 G 17 10.00 Fair CLR 78.8 69.8 74% 81 29.92 0.0
07 12:50 SW 3 10.00 Partly Cloudy SCT120 77 69.8 79% 79 29.92 0.0
07 12:30 SW 7 10.00 Partly Cloudy SCT120 77 68 74% 79 29.91 0.0
07 12:10 SW 8 10.00 Partly Cloudy SCT029 SCT060 SCT100 73.4 68 83% 29.93 0.0
07 11:50 SW 9 10.00 Light Drizzle SCT040 SCT060 BKN100 73.4 68 83% 29.94 0.0
07 11:30 SW 7 10.00 Light Rain SCT037 SCT050 BKN065 73.4 68 83% 29.98 0.0
07 11:10 W 8 10.00 Light Rain SCT033 SCT044 BKN070 75.2 66.2 74% 77 30 0.0
07 10:50 W 6 10.00 Light Rain SCT044 SCT110 75.2 64.4 69% 77 30.03 0.0
07 10:30 W 6 10.00 Partly Cloudy SCT110 73.4 64.4 74% 30.01 0.0
07 10:15 SW 7 10.00 Fair CLR 73.4 64.4 74% 29.97 0.0
07 09:54 Calm 10.00 Fair CLR 71.6 66.2 83% 29.94 0.0
07 09:30 Calm 10.00 Fair CLR 69.8 64.4 83% 29.95 0.0
07 09:10 Calm 10.00 Fair CLR 69.8 64.4 83% 29.98 0.0
07 08:50 Calm 10.00 Partly Cloudy SCT110 69.8 64.4 83% 30.01 0.0
07 08:30 Calm 7.00 Partly Cloudy SCT120 68 64.4 88% 30 0.0
07 08:10 Calm 7.00 Fair CLR 68 64.4 88% 29.97 0.0
07 07:50 Calm 7.00 Fair CLR 66.2 64.4 94% 29.94 0.0
07 07:30 Calm 7.00 Fair CLR 66.2 62.6 88% 29.97 0.0
07 07:10 Calm 7.00 Fair CLR 66.2 62.6 88% 29.97 0.0
07 06:50 Calm 10.00 Fair CLR 66.2 62.6 88% 29.97 0.0
07 06:30 Calm 10.00 Fair CLR 66.2 62.6 88% 29.99 0.0
07 06:10 Calm 10.00 Partly Cloudy SCT100 68 62.6 83% 30 0.0
07 05:50 Calm 10.00 Partly Cloudy SCT100 69.8 64.4 83% 30 0.0
07 05:30 Calm 10.00 Fair CLR 69.8 64.4 83% 30 0.0
07 05:10 Calm 10.00 Fair CLR 69.8 64.4 83% 30.01 0.0
07 04:50 Calm 10.00 Fair CLR 69.8 64.4 83% 29.98 0.0
07 04:30 Calm 7.00 Fair CLR 69.8 64.4 83% 29.95 0.0
07 04:10 Calm 7.00 Fair CLR 69.8 64.4 83% 29.94 0.0
07 03:50 Calm 7.00 Fair CLR 69.8 64.4 83% 29.93 0.0
07 03:30 Calm 7.00 Fair CLR 71.6 64.4 78% 29.93 0.0
07 03:10 Calm 7.00 Fair CLR 71.6 64.4 78% 29.93 0.0
07 02:50 Calm 10.00 Fair CLR 71.6 64.4 78% 29.94 0.0
07 02:30 Calm 10.00 Fair CLR 71.6 64.4 78% 29.95 0.0
07 02:10 Calm 10.00 Fair CLR 71.6 64.4 78% 29.96 0.0
07 01:50 Calm 10.00 Fair CLR 73.4 64.4 74% 29.96 0.0
07 01:30 Calm 10.00 Fair CLR 73.4 64.4 74% 29.96 0.0
07 01:10 Calm 10.00 Fair CLR 73.4 66.2 78% 29.97 0.0
07 00:30 Calm 10.00 Fair CLR 73.4 66.2 78% 29.98 0.0
07 00:10 Calm 10.00 Fair CLR 73.4 66.2 78% 29.98 0.0
06 23:50 Calm 10.00 Fair CLR 73.4 66.2 78% 29.97 0.0
06 23:30 Calm 10.00 Fair CLR 73.4 66.2 78% 29.97 0.0
06 23:10 Calm 10.00 Fair CLR 73.4 66.2 78% 29.97 0.0
06 22:50 Calm 10.00 Fair CLR 75.2 66.2 74% 77 29.98 0.0
06 22:30 Calm 10.00 Fair CLR 75.2 66.2 74% 77 29.98 0.0
06 22:10 Calm 10.00 Fair CLR 77 66.2 69% 79 29.97 0.0
06 21:50 Calm 10.00 Fair CLR 77 68 74% 79 29.97 0.0
06 21:30 Calm 10.00 Fair CLR 78.8 68 70% 81 29.98 0.0
06 21:10 Calm 10.00 Fair CLR 78.8 68 70% 81 29.97 0.0
06 20:50 Calm 10.00 Fair CLR 80.6 69.8 70% 84 29.97 0.0
06 20:30 Calm 10.00 Fair CLR 80.6 68 66% 83 29.97 0.0
06 20:10 Calm 10.00 Fair CLR 80.6 64.4 58% 82 29.97 0.0
06 19:30 Calm 10.00 Fair CLR 87.8 62.6 43% 88 29.96 0.0
06 19:10 Calm 10.00 Fair CLR 89.6 60.8 38% 90 29.96 0.0
06 18:50 Calm 10.00 Mostly Cloudy SCT070 BKN080 89.6 60.8 38% 90 29.96 0.0
06 18:10 Calm 10.00 Mostly Cloudy BKN070 BKN080 89.6 60.8 38% 90 29.96 0.0
06 17:50 W 3 10.00 Partly Cloudy SCT070 89.6 60.8 38% 90 29.96 0.0
06 17:30 W 7 10.00 Partly Cloudy SCT070 91.4 60.8 36% 91 29.96 0.0
06 17:10 Calm 10.00 Mostly Cloudy BKN070 91.4 60.8 36% 91 29.96 0.0
06 16:50 Calm 10.00 Partly Cloudy SCT070 91.4 60.8 36% 91 29.96 0.0
06 16:30 SW 5 10.00 Partly Cloudy SCT070 91.4 60.8 36% 91 29.97 0.0
06 16:10 W 3 10.00 Partly Cloudy SCT070 91.4 60.8 36% 91 29.97 0.0
06 15:50 Calm 10.00 Fair CLR 91.4 59 34% 91 29.98 0.0
06 15:30 Calm 10.00 Fair CLR 91.4 60.8 36% 91 29.98 0.0
06 15:10 SW 8 10.00 Fair CLR 91.4 60.8 36% 91 29.99 0.0
06 14:50 SW 3 10.00 Fair CLR 91.4 59 34% 91 30 0.0
06 14:30 Calm 10.00 Fair CLR 89.6 60.8 38% 90 30.01 0.0
06 14:10 W 6 10.00 Fair CLR 89.6 60.8 38% 90 30.02 0.0
06 13:50 NW 7 10.00 Fair CLR 89.6 60.8 38% 90 30.03 0.0
06 13:30 W 6 10.00 Fair CLR 87.8 60.8 40% 88 30.04 0.0
06 13:10 SW 3 10.00 Fair CLR 87.8 60.8 40% 88 30.05 0.0
06 12:50 W 7 10.00 Fair CLR 87.8 60.8 40% 88 30.06 0.0
06 12:30 W 5 10.00 Fair CLR 86 60.8 43% 86 30.06 0.0
06 12:10 Calm 10.00 Fair CLR 86 62.6 46% 87 30.07 0.0
06 11:50 Calm 10.00 Fair CLR 84.2 62.6 48% 85 30.07 0.0
06 11:30 SW 6 10.00 Fair CLR 82.4 62.6 51% 83 30.07 0.0
06 11:10 W 5 10.00 Fair CLR 82.4 62.6 51% 83 30.07 0.0
06 10:50 Calm 10.00 Fair CLR 80.6 62.6 54% 82 30.07 0.0
06 10:30 SW 7 10.00 Fair CLR 78.8 60.8 54% 80 30.06 0.0
06 10:10 SW 6 10.00 Fair CLR 78.8 60.8 54% 80 30.07 0.0
06 09:50 SW 6 10.00 Fair CLR 77 60.8 57% 79 30.07 0.0
06 09:30 SW 5 10.00 Fair CLR 75.2 60.8 61% 77 30.06 0.0
06 09:10 Calm 10.00 Fair CLR 73.4 60.8 65% 30.05 0.0
06 08:50 Calm 10.00 Fair CLR 69.8 60.8 73% 30.05 0.0
06 08:30 Calm 10.00 Fair CLR 66.2 60.8 83% 30.06 0.0
06 08:10 Calm 10.00 Fair CLR 62.6 57.2 83% 30.05 0.0
Date Time (edt) Wind (mph) Vis. (mi.) Weather Sky Cond. Air Dwpt Max. Min. Relative Humidity Wind Chill (°F) Heat Index (°F) altimeter (in) sea level (mb) 1 hr 3 hr 6 hr
6 hour
Temperature (ºF) Pressure Precipitation (in)